FENGYUN 1C DEB, 30741

Orbit data source: Space-Track

FENGYUN 1C DEB, 30741 is space debris in SSO originally from a launch on Mon, 10 May 1999 UTC launched from the Taiyaun Space Center, China (TSC). Fengyun 1C debris stems from the Chinese weather satellite Fengyun-1C, which was intentionally destroyed by a Chinese anti-satellite missile in 2007. This event dramatically increased the amount of space debris, with thousands of trackable fragments posing hazards to satellites and human spaceflight. The Fengyun 1C debris cloud has become a focal point in discussions about space sustainability and the need for international regulations to prevent the creation of new debris.

Loading next visibility...
Identifier
30741, 1999-025ATB
Orbit
SSO
Country
Flag of CNCN / PRC
Related business
Manufacturer
Unknown
Mission
Spacecraft
Bus & Motor
Unknown
Mass
Unknown
Launch date (UTC)
1999-05-10 (27 years ago)
Launch vehicle
Unknown
Launch site
Taiyaun Space Center, China (TSC)
Object type
Payload
Rocket body
Debris
Shape & HBR
Unknown shape, 0.1 m
Radar Cross Section
Small (<0.1 m²)

Expand to show TLE details & history
Last TLE update: 15 hours ago

TLE from 15 hours ago
0 FENGYUN 1C DEB
1 30741U 99025ATB 26062.53950210  .00000299  00000-0  18219-3 0  9995
2 30741  98.6797  74.3783 0005128 245.9722 243.1872 14.13290124979607
Epoch: 2026-03-03T12:56Z
TLE epoch observation values (Epoch: 2026-03-03T12:56:52.981Z)
Latitude
50.19224°
Longitude
-90.66101°
Altitude
857.775 km
Speed
7.428 km/s
True Right ascension
17h 39m 30s
True Declination
50° 01' 31"
Sunlit
Object was in daylight at epoch
Visualization orbit readout
Latitude
Unknown
Longitude
Unknown
Altitude
Unknown
Speed
Unknown
Apparent Right ascension
Unknown
Apparent Declination
Unknown
Sunlit
N/A
Visualization observer readout
Local Sidereal Time
07:22:17
Azimuth
Unknown
Elevation
Unknown
Doppler factor
Unknown
Orbital elements
Apogee altitude
849.005 km
Perigee altitude
841.597 km
Semi-major axis
7,223.438 km
Eccentricity
0.00051
Inclination
98.6797°
RAAN
74.3783°
Arg. of periapsis
245.9722°
True anomaly
243.13477°
Mean anomaly
243.1872°
Eccentric anomaly
243.16098°
Mean motion
3.53531 °/min
Orbital period
101.83 mins
BSTAR
0.00018219
Loading maneuver chart data...
Computing Atmospheric mass density...

Documentation

Showing up to 5 results
|